STARLINK-4038

operational
NORAD ID: 53150 Int'l Des: 2022-083 Owner: SPXS Country: US Constellation: starlink
LEOCIRCULAR

关于 STARLINK-4038

正在加载描述...

实时位置

正在加载3D地球...

即将过境

高度历史

Altitude vs Time

uPlot chart will show altitude changes over time

两行轨道根数

1 53150U 22083U 25251.71779491 .00000946 00000-0 77493-4 0 9992
2 53150 53.2161 261.0264 0001709 65.3572 294.7598 15.08844345173883
Epoch: Sep 8, 2025 • Age: 17 hours

当前状态

高度 553.0 km
速度 7.58 km/s
星下点 -37.51°S, 28.1°W
发射日期 Jul 17, 2022
运行时间 3.1 years
类型 internet

技术详情

分类 Payload
质量 297.00 kg
干质量 275.00 kg
总质量 297.00 kg
长度 0.20 m
直径 2.80 m
跨度 9.00 m
形状 Box + pan
制造商 SPXS
平台类型 Starlink
阶段状态 In Orbit
所有者/国家 SPXS/US

大型星座

Loading constellations...